map of AEH home
Great Circle Mapper logo
AEH - Airport
Location
City:  Abéché, Ouaddaï, Chad
ICAO:FTTC
IATA:AEH

Details
Type:Airport (Aerodrome, Airfield)
Use:Public/Civil
Latitude:13°50'49"N (13.847000)
Longitude:20°50'40"E (20.844333)
Datum:WGS 1984
Elevation:1788 ft (545 m)
Variation:2.17°E (WMM2015 magnetic declination)
0.10° annual change
Runways:1
Longest:9186 × 98 ft (2800 × 30 m), paved

Time
Time Zone:UTC+1
Local Time:

Weather
METAR:FTTC 271500Z 36006KT 9999 FEW040 SCT150 41/00 Q1009

Related Locations
Nearby:
Farthest:MHX: 12164 mi / 19577 km
Manihiki Island (Manuhiki, Tapuahua, Humphrey Island), CK

Find:

   beyond  
but within

Other Information
Maps:
NOTAMs:
Links:
Sources:

  
flag of Chad   

Sectional Chart

Flight Planning
at skyvector.com

Satellite Image

Google Maps Satellite view

 

Copyright © 2004-2016 Karl L. Swartz. All rights reserved.
The Great Circle Mapper name and logo are trademarks of the Great Circle Mapper.
All other trademarks mentioned herein belong to their respective owners.
Please see credits for attibutions and further copyright information.

  Follow gcmap on Facebook Follow gcmap on Twitter Follow gcmap on Google+ GCmap on LinkedIn

hCard Microformat

Geo Microformat